Weather History for KDIK - October, 2012

Change the Weather History Date:

Friday, October 26, 2012

  Actual Average Record
Temperature  
Mean Temperature 26 °F 40 °F  
Max Temperature 33 °F 52 °F 76 °F (1955)
Min Temperature 18 °F 28 °F -11 °F (1919)
Degree Days  
Heating Degree Days 39 25  
Month to date heating degree days 581 521  
Since 1 July heating degree days 805 875  
Cooling Degree Days 0 0  
Month to date cooling degree days 0 0  
Year to date cooling degree days 591 418  
Moisture  
Dew Point 15 °F    
Average Humidity 63    
Maximum Humidity 80    
Minimum Humidity 45    
Precipitation  
Precipitation 0.00 in 0.03 in 1.31 in (1989)
Month to date precipitation 1.32 1.08  
Year to date precipitation 9.91 14.84  
Sea Level Pressure  
Sea Level Pressure 30.37 in    
Wind  
Wind Speed 11 mph (West)    
Max Wind Speed 24 mph    
Max Gust Speed 30 mph    
Visibility 10 miles    
Events      
T = Trace of Precipitation, MM = Missing Value Source: NWS Daily Summary

Daily Weather History Graph

Daily Weather History Graph

Search for Another Location

Airport or City:

Trip Planner

Search our weather history database for the weather conditions in past years. The results will help you decide how hot, cold, wet, or windy it might be!

Date:

Astronomy

Oct. 26, 2012 Rise Set
Actual Time 7:25 AM MDT 5:44 PM MDT
Civil Twilight 6:54 AM MDT 6:15 PM MDT
Nautical Twilight 6:18 AM MDT 6:50 PM MDT
Astronomical Twilight 5:43 AM MDT 7:25 PM MDT
Moon 4:08 PM MDT (10/26) 4:14 AM MDT (10/26)
Length of Visible Light 11h 21m
Length of Day
10h 18m
Waxing Gibbous, 91% of the Moon is Illuminated
Oct 26
Waxing Gibbous
Oct 29
Full
Nov 6
Last Quarter
Nov 13
New
Nov 20
First Quarter

Hourly Weather History & Observations

Time (MDT) Temp. Windchill Dew Point Humidity Pressure Visibility Wind Dir Wind Speed Gust Speed Precip Events Conditions
12:56 AM 28.9 °F 16.1 °F 19.9 °F 69% 30.38 in 10.0 mi WNW 19.6 mph - N/A   Overcast
1:56 AM 28.0 °F 14.6 °F 18.0 °F 66% 30.39 in 10.0 mi WNW 20.7 mph 26.5 mph N/A   Overcast
2:54 AM 26.6 °F 12.7 °F 15.8 °F 64% 30.31 in 10.0 mi WNW 20.7 mph 29.9 mph N/A   Overcast
2:56 AM 27.0 °F 13.5 °F 16.0 °F 63% 30.41 in 10.0 mi WNW 19.6 mph 29.9 mph N/A   Overcast
3:56 AM 27.0 °F 14.3 °F 15.1 °F 61% 30.41 in 10.0 mi WNW 17.3 mph 25.3 mph N/A   Overcast
4:56 AM 26.1 °F 15.0 °F 15.1 °F 63% 30.41 in 10.0 mi WNW 12.7 mph - N/A   Overcast
5:56 AM 26.1 °F 13.1 °F 15.1 °F 63% 30.42 in 10.0 mi WNW 17.3 mph - N/A   Overcast
7:56 AM 26.1 °F 13.6 °F 16.0 °F 66% 30.43 in 10.0 mi WNW 16.1 mph - N/A   Overcast
8:56 AM 27.0 °F 15.2 °F 17.1 °F 66% 30.44 in 10.0 mi WNW 15.0 mph - N/A   Overcast
9:56 AM 27.0 °F 14.7 °F 17.1 °F 66% 30.44 in 10.0 mi WNW 16.1 mph 19.6 mph N/A   Overcast
10:56 AM 28.0 °F 14.9 °F 16.0 °F 61% 30.44 in 10.0 mi WNW 19.6 mph - N/A   Overcast
11:56 AM 28.0 °F 17.0 °F 15.1 °F 58% 30.42 in 10.0 mi WNW 13.8 mph - N/A   Overcast
12:56 PM 28.0 °F 16.1 °F 15.1 °F 58% 30.40 in 10.0 mi West 16.1 mph 20.7 mph N/A   Overcast
1:56 PM 28.9 °F 17.3 °F 12.9 °F 51% 30.38 in 10.0 mi West 16.1 mph - N/A   Overcast
2:56 PM 30.9 °F 21.2 °F 14.0 °F 50% 30.35 in 10.0 mi West 12.7 mph - N/A   Overcast
3:56 PM 32.0 °F 23.6 °F 14.0 °F 48% 30.33 in 10.0 mi WNW 10.4 mph - N/A   Partly Cloudy
4:56 PM 30.0 °F 23.2 °F 14.0 °F 51% 30.33 in 10.0 mi West 6.9 mph - N/A   Clear
5:56 PM 27.0 °F 23.0 °F 14.0 °F 58% 30.33 in 10.0 mi NW 3.5 mph - N/A   Clear
6:56 PM 24.1 °F - 12.9 °F 62% 30.33 in 10.0 mi Calm Calm - N/A   Partly Cloudy
7:56 PM 19.9 °F 14.9 °F 12.0 °F 71% 30.32 in 10.0 mi SSE 3.5 mph - N/A   Clear
8:56 PM 19.0 °F 12.3 °F 12.9 °F 77% 30.32 in 10.0 mi SSE 4.6 mph - N/A   Overcast
9:56 PM 21.0 °F - 14.0 °F 74% 30.30 in 10.0 mi Calm Calm - N/A   Scattered Clouds
10:56 PM 18.0 °F 12.7 °F 12.9 °F 81% 30.30 in 10.0 mi South 3.5 mph - N/A   Partly Cloudy
11:56 PM 19.0 °F 9.0 °F 14.0 °F 81% 30.29 in 10.0 mi SSE 8.1 mph - N/A   Overcast